Find Starlink 34801

NORAD ID: 66076 Int'l Des: 2025-235 Owner: SPXS Country: US Constellation: starlink operational
LEOCIRCULAR

当前视图

正在加载3D地球...

About Starlink 34801

Starlink 34801 (NORAD 66076) is a starlink constellation satellite (v2 mini) launched Oct 19, 2025 by SPXS of US. It operates in LEO, CIRCULAR orbit with a mass of 575.00 kg.

即将过境

Passes for default location (London). Set your location on the main map for personalized predictions.

高度历史

Loading altitude history...

两行轨道根数

1 66076U 25235U 26263.60849955 .00011923 00000-0 36346-3 0 9998
2 66076 53.1594 59.2404 0001151 89.0302 271.0832 15.34398536 52779
Epoch: Sep 20, 2026 • Age: 16 hours

当前状态

高度 465.1 km
远地点 / 近地点 N/A
速度 7.64 km/s
星下点 37.52°N, 5.85°W
发射日期 Oct 19, 2025
运行时间 0.9 years
类型 internet

技术详情

分类 Payload
质量 575.00 kg
干质量 530.00 kg
长度 0.30 m
跨度 29.00 m
形状 ? Box + pan
制造商 SPXS
平台类型 Starlink V2MO
阶段状态 In Orbit
所有者/国家 SPXS/US

Most Searched